Hourly Data Report for November 30, 2019

SHEARWATER RCS
NOVA SCOTIA
Current Station Operator: ECCC - MSC

44°37'47.000" N
63°30'48.000" W
24.00 m
8205092
71264
AAW

Download Data

Hourly Data (November 2019)
Hourly Data Report for November 30, 2019
TIME
LST
Temp Definition
°C
Dew Point Definition
°C
Rel Hum Definition
%
Precip. Amount Definition
mm

Wind Dir Definition
10's deg

Wind Spd Definition
km/h
Visibility Definition
km
Stn Press Definition
kPa
Hmdx Definition


Wind Chill Definition


Weather Definition


00:00 -3.4 -7.8 71 0.0 32 35   99.58   -11 LegendNANA
01:00 -3.3 -7.5 73 0.0 32 33   99.49   -11 LegendNANA
02:00 -3.3 -7.9 71 0.0 32 34   99.45   -11 LegendNANA
03:00 -3.3 -7.8 71 0.0 32 34   99.45   -11 LegendNANA
04:00 -3.3 -7.5 72 0.0 32 28   99.43   -11 LegendNANA
05:00 -3.3 -7.4 73 0.0 32 27   99.42   -10 LegendNANA
06:00 -3.5 -7.3 75 0.0 32 27   99.40   -11 LegendNANA
07:00 -3.2 -7.0 75 0.0 32 30   99.42   -11 LegendNANA
08:00 -2.9 -6.8 74 0.0 32 30   99.42   -10 LegendNANA
09:00 -2.5 -6.7 73 0.0 32 29   99.43   -10 LegendNANA
10:00 -1.9 -6.5 71 0.0 32 32   99.43   -9 LegendNANA
11:00 -1.3 -6.4 68 0.0 32 31   99.42   -8 LegendNANA
12:00 -1.0 -6.2 68 0.0 32 31   99.38   -8 LegendNANA
13:00 -0.9 -6.4 66 0.0 33 30   99.36   -8 LegendNANA
14:00 -0.3 -6.3 64 0.0 32 27   99.38   -7 LegendNANA
15:00 -0.6 -6.8 63 0.0 32 28   99.42   -7 LegendNANA
16:00 -0.6 -6.6 64 0.0 31 25   99.48   -7 LegendNANA
17:00 -0.7 -6.2 66 0.0 31 23   99.51   -7 LegendNANA
18:00 0.0 -6.4 62 0.0 32 23   99.56   -6 LegendNANA
19:00 0.3 -6.8 59 0.0 32 22   99.59     LegendNANA
20:00 0.4 -7.1 57 0.0 32 22   99.67     LegendNANA
21:00 0.1 -7.2 58 0.0 32 25   99.73     LegendNANA
22:00 -0.2 -7.4 59 0.0 32 22   99.82   -6 LegendNANA
23:00 -0.8 -7.7 60 0.0 32 20   99.91   -6 LegendNANA

Notes on Data Quality.

Legend

  • E = Estimated
  • M = Missing
  • NA = Not Available*
  • [empty] = Indicates an unobserved value
Date modified: